TimeCST,TemperatureF,Dew PointF,Humidity,Sea Level PressureIn,VisibilityMPH,Wind Direction,Wind SpeedMPH,Gust SpeedMPH,PrecipitationIn,Events,Conditions,WindDirDegrees,DateUTC
12:53 AM,28.0,21.9,78,29.98,10.0,WSW,4.6,-,N/A,,Clear,240,2013-02-13 06:53:00
1:53 AM,27.0,21.9,81,29.96,10.0,SW,4.6,-,N/A,,Clear,230,2013-02-13 07:53:00
2:53 AM,25.0,21.0,85,29.94,10.0,Calm,Calm,-,N/A,,Clear,0,2013-02-13 08:53:00
3:53 AM,26.1,21.9,84,29.93,10.0,West,6.9,-,N/A,,Clear,260,2013-02-13 09:53:00
4:53 AM,24.1,19.9,84,29.93,10.0,West,3.5,-,N/A,,Clear,270,2013-02-13 10:53:00
5:53 AM,26.1,21.0,81,29.93,10.0,West,8.1,-,N/A,,Clear,280,2013-02-13 11:53:00
6:53 AM,25.0,19.9,81,29.93,10.0,WSW,3.5,-,N/A,,Clear,250,2013-02-13 12:53:00
7:53 AM,25.0,21.0,85,29.93,10.0,SW,3.5,-,N/A,,Clear,230,2013-02-13 13:53:00
8:53 AM,33.1,26.1,75,29.94,10.0,SW,4.6,-,N/A,,Clear,230,2013-02-13 14:53:00
9:53 AM,41.0,25.0,53,29.93,10.0,West,8.1,-,N/A,,Clear,280,2013-02-13 15:53:00
10:53 AM,45.0,25.0,46,29.93,10.0,West,11.5,-,N/A,,Clear,270,2013-02-13 16:53:00
11:53 AM,50.0,24.1,36,29.92,10.0,West,13.8,-,N/A,,Clear,270,2013-02-13 17:53:00
12:53 PM,53.1,23.0,31,29.88,10.0,WSW,15.0,-,N/A,,Clear,250,2013-02-13 18:53:00
1:53 PM,55.9,21.9,27,29.85,10.0,West,18.4,-,N/A,,Clear,260,2013-02-13 19:53:00
2:53 PM,55.9,24.1,29,29.83,10.0,West,19.6,-,N/A,,Clear,280,2013-02-13 20:53:00
3:53 PM,55.0,23.0,29,29.83,10.0,West,17.3,26.5,N/A,,Clear,280,2013-02-13 21:53:00
4:53 PM,54.0,21.9,29,29.83,10.0,West,16.1,21.9,N/A,,Clear,280,2013-02-13 22:53:00
5:53 PM,50.0,21.9,33,29.84,10.0,West,10.4,-,N/A,,Clear,270,2013-02-13 23:53:00
6:53 PM,43.0,21.0,42,29.84,10.0,SW,6.9,-,N/A,,Clear,230,2013-02-14 00:53:00
7:53 PM,41.0,23.0,49,29.85,10.0,SW,8.1,-,N/A,,Clear,230,2013-02-14 01:53:00
8:53 PM,-9999,-9999,N/A,29.82,-9999.0,North,-9999.0,-,N/A,,Unknown,0,2013-02-14 02:53:00
9:53 PM,-9999,-9999,N/A,29.83,-9999.0,North,-9999.0,-,N/A,,Unknown,0,2013-02-14 03:53:00
10:53 PM,-9999,-9999,N/A,29.83,-9999.0,North,-9999.0,-,N/A,,Unknown,0,2013-02-14 04:53:00
11:53 PM,36.0,24.1,62,29.86,10.0,WSW,6.9,-,N/A,,Clear,250,2013-02-14 05:53:00